Date String (YYYY-MM-DD hh:mm:ss) UTC,Instrument flags,Ambient pressure (hPa),Sample flow (lpm),Bypass flow (lpm),Sample temperature (°C),Ambient temperature (°C),ASC tube jacket temperature (°C),LED temperature (°C),Box temperature (°C),Sample RH (%),Span deviation,Mass concentration (μg/m³),Mass concentration (μg/m³),Mass concentration (μg/m³)
DateTimeUTC,F1_M11,P_M11,Q1_M11,Q2_M11,T1_M11,T2_M11,T3_M11,T4_M11,T5_M11,U1_M11,ZSPAN_M11,X0_M11,X2_M11,X1_M11
2022-03-27 20:00:00,,0822.2,4.99,0.00,27.0,26.2,00.0,35.8,28.9,15.2,0002.9,0023.71,0012.20,0010.22
2022-03-27 20:01:00,,0822.3,5.00,0.00,27.0,26.3,00.0,35.8,28.9,15.3,0002.7,0022.53,0012.18,0010.18
2022-03-27 20:02:00,,0822.2,5.00,0.00,27.0,26.3,00.0,35.9,28.9,15.1,0002.4,0022.56,0012.13,0010.14
2022-03-27 20:03:00,,0822.2,5.00,0.00,27.0,26.3,00.0,35.9,28.9,15.2,0002.1,0022.00,0012.07,0010.10
2022-03-27 20:04:00,,0822.2,5.00,0.00,27.0,26.3,00.0,35.9,28.9,15.3,0001.8,0022.15,0011.98,0010.08
2022-03-27 20:05:00,,0822.2,5.00,0.00,27.0,26.3,00.0,35.9,28.9,15.4,0001.7,0022.00,0011.94,0010.06
2022-03-27 20:06:00,,0822.2,5.00,0.00,27.0,26.3,00.0,35.9,28.9,15.2,0001.8,0022.32,0011.88,0010.04
2022-03-27 20:07:00,,0822.2,5.00,0.00,27.0,26.3,00.0,35.9,28.9,15.3,0002.0,0022.01,0011.81,0010.01
2022-03-27 20:08:00,,0822.1,5.00,0.00,27.1,26.3,00.0,35.9,29.0,15.4,0001.9,0021.73,0011.78,0009.97
2022-03-27 20:09:00,,0822.1,5.00,0.00,27.1,26.4,00.0,35.9,29.0,15.3,0002.0,0021.40,0011.70,0009.91
2022-03-27 20:10:00,,0822.1,5.00,0.00,27.1,26.4,00.0,35.9,29.0,15.3,0002.3,0021.71,0011.61,0009.86
2022-03-27 20:11:00,,0822.2,4.99,0.00,27.1,26.4,00.0,35.9,29.0,15.7,0002.7,0022.42,0011.54,0009.79
2022-03-27 20:12:00,,0822.2,5.01,0.00,27.1,26.5,00.0,35.9,29.0,15.7,0002.5,0022.48,0011.46,0009.74
2022-03-27 20:13:00,,0822.1,5.01,0.00,27.2,26.5,00.0,36.0,29.0,15.5,0002.6,0022.75,0011.34,0009.68
2022-03-27 20:14:00,,0822.1,4.99,0.00,27.2,26.5,00.0,36.0,29.1,15.5,0002.7,0022.52,0011.29,0009.63
2022-03-27 20:15:00,,0822.1,4.99,0.00,27.2,26.5,00.0,36.0,29.1,15.5,0002.5,0022.30,0011.28,0009.58
2022-03-27 20:16:00,,0822.1,5.00,0.00,27.2,26.5,00.0,36.0,29.1,15.6,0002.2,0022.90,0011.24,0009.53
2022-03-27 20:17:00,,0822.1,5.01,0.00,27.2,26.5,00.0,36.0,29.1,15.7,0002.2,0022.97,0011.17,0009.47
2022-03-27 20:18:00,,0822.0,5.00,0.00,27.2,26.6,00.0,36.1,29.1,15.6,0002.1,0024.15,0011.12,0009.40
2022-03-27 20:19:00,,0822.0,5.01,0.00,27.3,26.6,00.0,36.1,29.1,15.4,0002.2,0024.37,0011.04,0009.33
2022-03-27 20:20:00,,0822.0,5.00,0.00,27.3,26.6,00.0,36.1,29.1,15.3,0002.0,0024.90,0011.00,0009.27
2022-03-27 20:21:00,,0822.0,5.00,0.00,27.3,26.5,00.0,36.1,29.1,15.2,0001.4,0024.20,0010.93,0009.22
2022-03-27 20:22:00,,0822.0,5.00,0.00,27.3,26.5,00.0,36.1,29.1,15.3,0001.5,0024.18,0010.87,0009.20
2022-03-27 20:23:00,,0821.9,5.00,0.00,27.3,26.6,00.0,36.1,29.2,15.3,0001.7,0023.76,0010.85,0009.18
2022-03-27 20:24:00,,0821.8,5.01,0.00,27.3,26.6,00.0,36.1,29.2,15.4,0001.8,0023.81,0010.89,0009.19
2022-03-27 20:25:00,,0821.9,5.00,0.00,27.3,26.6,00.0,36.1,29.2,15.3,0002.0,0023.63,0010.94,0009.18
2022-03-27 20:26:00,,0822.0,5.00,0.00,27.3,26.6,00.0,36.1,29.2,15.5,0002.0,0024.07,0010.93,0009.16
2022-03-27 20:27:00,,0822.0,5.01,0.00,27.3,26.6,00.0,36.2,29.2,15.6,0002.3,0024.23,0010.94,0009.15
2022-03-27 20:28:00,,0822.0,4.99,0.00,27.3,26.6,00.0,36.2,29.2,15.3,0002.4,0023.44,0010.96,0009.15
2022-03-27 20:29:00,,0821.9,5.00,0.00,27.3,26.6,00.0,36.2,29.2,15.4,0002.2,0023.41,0010.95,0009.15
2022-03-27 20:30:00,,0821.8,4.99,0.00,27.3,26.6,00.0,36.2,29.2,15.6,0002.2,0022.55,0010.92,0009.13
2022-03-27 20:31:00,,0821.8,5.00,0.00,27.4,26.6,00.0,36.2,29.2,15.4,0002.1,0021.84,0010.96,0009.12
2022-03-27 20:32:00,,0821.8,5.00,0.00,27.4,26.6,00.0,36.2,29.2,15.7,0002.3,0022.70,0010.92,0009.08
2022-03-27 20:33:00,,0821.9,5.00,0.00,27.4,26.6,00.0,36.2,29.2,15.5,0001.9,0022.17,0010.88,0009.01
2022-03-27 20:34:00,,0822.1,5.00,0.00,27.4,26.6,00.0,36.2,29.2,15.6,0001.6,0022.15,0010.86,0008.95
2022-03-27 20:35:00,,0821.9,4.99,0.00,27.4,26.6,00.0,36.2,29.2,15.4,0001.9,0021.61,0010.74,0008.89
2022-03-27 20:36:00,,0821.8,5.01,0.00,27.4,26.7,00.0,36.3,29.2,15.5,0002.0,0021.52,0010.61,0008.84
2022-03-27 20:37:00,,0821.8,5.00,0.00,27.4,26.7,00.0,36.3,29.3,15.7,0002.5,0021.65,0010.53,0008.79
2022-03-27 20:38:00,,0821.8,5.00,0.00,27.4,26.7,00.0,36.3,29.3,15.5,0002.7,0021.53,0010.41,0008.74
2022-03-27 20:39:00,,0821.8,5.01,0.00,27.4,26.7,00.0,36.3,29.3,15.7,0002.2,0021.56,0010.33,0008.70
2022-03-27 20:40:00,,0821.8,4.99,0.00,27.4,26.7,00.0,36.3,29.3,15.6,0002.4,0020.62,0010.33,0008.69
2022-03-27 20:41:00,,0821.8,5.00,0.00,27.4,26.7,00.0,36.3,29.3,15.5,0002.5,0021.58,0010.31,0008.67
2022-03-27 20:42:00,,0821.8,5.00,0.00,27.4,26.7,00.0,36.3,29.3,15.5,0002.9,0022.05,0010.22,0008.64
2022-03-27 20:43:00,,0821.8,5.00,0.00,27.5,26.7,00.0,36.3,29.3,15.2,0003.2,0022.70,0010.21,0008.66
2022-03-27 20:44:00,,0821.8,5.01,0.00,27.5,26.7,00.0,36.3,29.3,15.2,0003.0,0022.72,0010.24,0008.71
2022-03-27 20:45:00,,0821.9,5.00,0.00,27.5,26.7,00.0,36.3,29.3,15.3,0002.9,0023.17,0010.24,0008.74
2022-03-27 20:46:00,,0821.8,4.99,0.00,27.5,26.7,00.0,36.3,29.3,15.5,0002.7,0023.64,0010.34,0008.75
2022-03-27 20:47:00,,0821.8,5.00,0.00,27.5,26.8,00.0,36.3,29.3,15.2,0001.0,0024.64,0010.34,0008.76
2022-03-27 20:48:00,,0821.7,5.01,0.00,27.5,26.8,00.0,36.4,29.3,15.4,0000.8,0024.34,0010.35,0008.77
2022-03-27 20:49:00,,0821.8,5.00,0.00,27.5,26.8,00.0,36.4,29.4,15.3,0001.1,0024.70,0010.41,0008.79
2022-03-27 20:50:00,,0821.8,5.00,0.00,27.5,26.8,00.0,36.4,29.4,15.1,0001.3,0024.77,0010.41,0008.80
2022-03-27 20:51:00,,0821.8,5.00,0.00,27.5,26.8,00.0,36.4,29.4,15.2,0001.7,0025.25,0010.41,0008.81
2022-03-27 20:52:00,,0821.8,5.00,0.00,27.5,26.8,00.0,36.4,29.4,15.2,0001.4,0024.11,0010.45,0008.85
2022-03-27 20:53:00,,0821.8,5.00,0.00,27.5,26.8,00.0,36.4,29.4,15.1,0000.4,0023.03,0010.47,0008.90
2022-03-27 20:54:00,,0821.9,5.01,0.00,27.5,26.8,00.0,36.4,29.4,15.3,0000.1,0021.60,0010.54,0008.93
2022-03-27 20:55:00,,0821.8,5.01,0.00,27.6,26.8,00.0,36.4,29.4,15.1,0000.4,0021.58,0010.61,0008.97
2022-03-27 20:56:00,,0821.8,5.00,0.00,27.6,26.8,00.0,36.4,29.4,15.3,0000.4,0021.03,0010.63,0009.01
2022-03-27 20:57:00,,0821.7,5.00,0.00,27.6,26.9,00.0,36.4,29.4,15.2,0000.2,0020.57,0010.67,0009.06
2022-03-27 20:58:00,,0821.8,5.00,0.00,27.6,26.9,00.0,36.4,29.4,15.5,0000.9,0019.98,0010.71,0009.11
2022-03-27 20:59:00,,0821.8,4.99,0.00,27.6,26.9,00.0,36.5,29.4,15.4,0000.4,0020.29,0010.75,0009.14
